Alturas, CA

4:11 PM PDT on May 22, 2017 (GMT -0700)
Alturas Municipal

Weather History for KAAT - November, 2013

Change the Weather History Date:

Friday, November 1, 2013

  Actual Average Record
Temperature  
Mean Temperature 42 °F 41 °F  
Max Temperature 66 °F 57 °F 82 °F (1962)
Min Temperature 17 °F 26 °F 0 °F (2002)
Degree Days  
Heating Degree Days 23 24  
Month to date heating degree days 23 24  
Since 1 July heating degree days 978 967  
Cooling Degree Days 0 0  
Month to date cooling degree days 0 0  
Year to date cooling degree days 280 156  
Moisture  
Dew Point 23 °F    
Average Humidity 59    
Maximum Humidity 92    
Minimum Humidity 26    
Precipitation  
Precipitation 0.00 in 0.07 in 0.44 in (1992)
Month to date precipitation 0.00 0.07  
Year to date precipitation 5.83 10.74  
Sea Level Pressure  
Sea Level Pressure 30.23 in    
Wind  
Wind Speed 2 mph (SSW)    
Max Wind Speed 10 mph    
Max Gust Speed 14 mph    
Visibility 7 miles    
Events Fog    
T = Trace of Precipitation, MM = Missing Value Source: NWS Daily Summary

Daily Weather History Graph

Daily Weather History Graph

Search for Another Location

Airport or City:

Trip Planner

Search our weather history database for the weather conditions in past years. The results will help you decide how hot, cold, wet, or windy it might be!

Date:

Astronomy

Nov. 01, 2013 Rise Set
Actual Time 7:34 AM PDT 5:56 PM PDT
Civil Twilight 7:05 AM PDT 6:25 PM PDT
Nautical Twilight 6:32 AM PDT 6:58 PM PDT
Astronomical Twilight 6:00 AM PDT 7:30 PM PDT
Moon 5:30 AM PDT (11/1) 4:53 PM PDT (11/1)
Length of Visible Light 11h 19m
Length of Day
10h 22m
Waning Crescent, 4% of the Moon is Illuminated
Nov 1
Waning Crescent
Nov 3
New
Nov 9
First Quarter
Nov 17
Full
Nov 25
Last Quarter

Hourly Weather History & Observations

Time (PDT) Temp. Windchill Dew Point Humidity Pressure Visibility Wind Dir Wind Speed Gust Speed Precip Events Conditions
12:55 AM 27.0 °F - 24.1 °F 89% 30.29 in 5.0 mi Calm Calm - N/A   Clear
1:55 AM 25.0 °F - 21.9 °F 88% 30.30 in 5.0 mi Calm Calm - N/A   Clear
2:55 AM 23.0 °F - 19.0 °F 85% 30.30 in 10.0 mi Calm Calm - N/A   Clear
3:55 AM 21.0 °F - 19.0 °F 92% 30.30 in 9.0 mi Calm Calm - N/A   Clear
4:55 AM 23.0 °F - 19.9 °F 88% 30.28 in 5.0 mi Calm Calm - N/A   Clear
5:32 AM 21.2 °F - 19.4 °F 93% 30.28 in 8.0 mi Calm Calm - N/A   Partly Cloudy
5:55 AM 21.0 °F - 18.0 °F 88% 30.29 in 9.0 mi Calm Calm - N/A   Partly Cloudy
6:55 AM 18.0 °F 12.7 °F 16.0 °F 92% 30.33 in 1.2 mi South 3.5 mph - N/A   Clear
7:00 AM 17.6 °F 12.3 °F 15.8 °F 93% 30.28 in 0.5 mi South 3.5 mph - N/A Fog Light Freezing Fog
7:21 AM 19.4 °F - 17.6 °F 93% 30.27 in 1.2 mi Calm Calm - N/A   Partly Cloudy
7:36 AM 19.4 °F - 17.6 °F 93% 30.27 in 0.5 mi Calm Calm - N/A Fog Light Freezing Fog
7:48 AM 21.2 °F - 17.6 °F 86% 30.27 in 0.2 mi Calm Calm - N/A Fog Light Freezing Fog
7:55 AM 19.9 °F - 18.0 °F 92% 30.32 in 0.5 mi Calm Calm - N/A Fog Light Freezing Fog
7:59 AM 19.4 °F - 17.6 °F 93% 30.28 in 1.0 mi Calm Calm - N/A   Mist
8:01 AM 17.6 °F - 15.8 °F 93% 30.28 in 2.5 mi Calm Calm - N/A   Scattered Clouds
8:08 AM 17.6 °F - 15.8 °F 93% 30.28 in 10.0 mi Calm Calm - N/A   Partly Cloudy
8:55 AM 27.0 °F - 24.1 °F 89% 30.34 in 10.0 mi Calm Calm - N/A   Clear
9:55 AM 39.0 °F - 30.9 °F 73% 30.30 in 10.0 mi Calm Calm - N/A   Clear
10:55 AM 48.9 °F - 33.1 °F 54% 30.27 in 10.0 mi Calm Calm - N/A   Clear
11:55 AM 54.0 °F - 35.1 °F 49% 30.26 in 10.0 mi Variable 4.6 mph - N/A   Clear
12:55 PM 60.1 °F - 34.0 °F 38% 30.21 in 10.0 mi SE 5.8 mph - N/A   Clear
1:55 PM 63.0 °F - 30.9 °F 30% 30.17 in 10.0 mi SSE 5.8 mph - N/A   Clear
2:55 PM 64.0 °F - 32.0 °F 30% 30.15 in 10.0 mi Calm Calm - N/A   Clear
3:55 PM 64.9 °F - 30.9 °F 28% 30.14 in 10.0 mi Variable 4.6 mph - N/A   Clear
4:55 PM 64.0 °F - 28.9 °F 27% 30.13 in 10.0 mi West 9.2 mph - N/A   Clear
5:55 PM 55.9 °F - 26.1 °F 32% 30.14 in 6.0 mi West 6.9 mph - N/A   Haze
6:31 PM 51.8 °F - 24.8 °F 35% 30.12 in 2.5 mi WSW 6.9 mph - N/A   Haze
6:40 PM 48.2 °F - 24.8 °F 40% 30.12 in 6.0 mi West 3.5 mph - N/A   Haze
6:55 PM 48.0 °F - 25.0 °F 41% 30.17 in 10.0 mi Calm Calm - N/A   Clear
7:55 PM 41.0 °F 38.0 °F 24.1 °F 51% 30.18 in 10.0 mi North 4.6 mph - N/A   Clear
8:55 PM 36.0 °F - 24.1 °F 62% 30.16 in 10.0 mi Calm Calm - N/A   Clear
9:55 PM 35.1 °F 32.2 °F 23.0 °F 61% 30.14 in 7.0 mi East 3.5 mph - N/A   Clear
10:55 PM 32.0 °F - 21.0 °F 64% 30.13 in 10.0 mi Calm Calm - N/A   Clear
11:55 PM 30.9 °F 26.2 °F 23.0 °F 72% 30.10 in 4.0 mi East 4.6 mph - N/A   Haze